time_stamp(utc),avg(mph),gust(mph),direction(deg),12m_air_temp(f),sonic_u(cm/s),sonic_v(cm/s),sonic_w(cm/s),pressure,2m_air_temp(f),pyranometer(W/m^2)
"2018-06-04 00:02:07+00",26.0,28.0,,54.9,1545,460,-229,1010.86,55,0
"2018-06-04 00:07:07+00",25.0,30.0,,54.9,1379,423,-168,1010.87,55,0
"2018-06-04 00:12:07+00",25.7,30.7,,54.9,1507,374,-182,1010.87,55,0
"2018-06-04 00:17:07+00",28.0,32.0,,54.9,1965,406,-418,1010.78,54.8,0
"2018-06-04 00:22:07+00",26.1,30.1,,54.9,1377,444,-146,1010.61,54.8,0
"2018-06-04 00:27:07+00",28.7,31.7,,54.7,1418,460,-196,1010.47,54.7,0
"2018-06-04 00:32:07+00",24.3,28.3,,54.9,1504,422,-222,1010.66,54.7,0
"2018-06-04 00:37:07+00",24.2,30.2,,55,1541,373,-238,1010.7,54.8,0
"2018-06-04 00:42:07+00",24.3,28.3,,55.1,1262,426,-94,1010.77,54.7,0
"2018-06-04 00:47:07+00",23.4,26.4,,55.2,1006,379,59,1010.78,55,0
"2018-06-04 00:52:07+00",23.3,28.3,,55,1177,390,-85,1010.77,54.8,0
"2018-06-04 00:57:07+00",25.5,29.5,,54.9,1341,465,-124,1010.77,54.6,0
"2018-06-04 01:02:07+00",22.7,25.7,,55.1,1155,363,-51,1010.96,55,0
"2018-06-04 01:07:07+00",25.6,30.6,,55,1564,417,-236,1010.81,54.8,0
"2018-06-04 01:12:07+00",26.8,29.8,,55,1754,536,-319,1010.84,54.7,0
"2018-06-04 01:17:07+00",25.9,28.9,,55,1371,448,-101,1010.81,54.9,0
"2018-06-04 01:22:07+00",21.5,25.5,,55.1,936,416,44,1010.95,55,0
"2018-06-04 01:27:07+00",22.6,26.6,,55.1,1183,393,-78,1010.93,55,0
"2018-06-04 01:32:07+00",25.6,30.6,,55.1,1511,498,-222,1010.86,55.2,0
"2018-06-04 01:37:07+00",21.9,25.9,,55.1,1140,387,-72,1010.89,55,0
"2018-06-04 01:42:07+00",24.3,28.3,,55.3,1256,428,-70,1010.81,55.4,0
"2018-06-04 01:47:07+00",25.7,29.7,,55.1,1629,519,-283,1010.8,55.1,0
"2018-06-04 01:52:07+00",23.8,26.8,,55.2,1214,468,-89,1010.94,55.1,0
"2018-06-04 01:57:07+00",28.1,30.1,,55,1829,509,-306,1010.81,55,0
"2018-06-04 02:02:07+00",23.1,28.1,,55.2,1298,394,-79,1010.87,55.2,0
"2018-06-04 02:07:07+00",27.0,31.0,,55.3,1480,539,-159,1010.84,55.3,0
"2018-06-04 02:12:07+00",25.0,28.0,,55.2,1830,452,-410,1010.74,55.4,0
"2018-06-04 02:17:07+00",26.7,30.7,,55.2,1871,561,-396,1010.7,55.3,0
"2018-06-04 02:22:07+00",25.4,28.4,,55.3,1578,421,-168,1010.83,55.4,0
"2018-06-04 02:27:07+00",27.3,30.3,,55.3,1897,457,-250,1010.81,55.3,0
"2018-06-04 02:32:07+00",26.8,29.8,,55.4,1543,447,-108,1010.73,55.5,0
"2018-06-04 02:37:07+00",27.5,30.5,,55.4,1745,619,-323,1010.51,55.5,0
"2018-06-04 02:42:07+00",26.3,28.3,,55.5,1723,512,-292,1010.54,55.7,0
"2018-06-04 02:47:07+00",28.4,30.4,,55.3,2204,557,-537,1010.58,55.5,0
"2018-06-04 02:52:07+00",27.3,29.3,,55.4,1862,557,-361,1010.53,55.6,0
"2018-06-04 02:57:07+00",23.0,27.0,,55.8,1135,515,-49,1010.42,55.9,0
"2018-06-04 03:02:07+00",30.6,32.6,,55.5,2513,665,-690,1010.19,55.8,0
"2018-06-04 03:07:07+00",26.3,28.3,,55.8,1679,520,-293,1010.27,55.9,0
"2018-06-04 03:12:07+00",29.3,34.3,,55.6,1958,698,-424,1010.04,55.9,0
"2018-06-04 03:17:07+00",26.6,29.6,,55.8,1442,574,-165,1010.01,56,0
"2018-06-04 03:22:07+00",31.2,34.2,,55.5,2216,709,-519,1009.91,55.9,0
"2018-06-04 03:27:07+00",25.3,29.3,,56,1423,528,-144,1009.88,56.2,0
"2018-06-04 03:32:07+00",32.0,34.0,,55.4,1911,845,-424,1009.75,55.8,0
"2018-06-04 03:37:07+00",29.3,32.3,,55.8,1948,706,-427,1009.67,56,0
"2018-06-04 03:42:07+00",27.8,32.8,,55.8,1759,663,-315,1009.57,56,0
"2018-06-04 03:47:07+00",32.1,36.1,,55.4,2200,782,-506,1009.52,55.8,0
"2018-06-04 03:52:07+00",31.0,35.0,,55.8,1808,765,-327,1009.45,56,0
"2018-06-04 03:57:07+00",33.0,37.0,,55.7,2113,790,-457,1009.29,55.9,0
"2018-06-04 04:02:07+00",31.8,33.8,,55.7,2394,735,-627,1009.23,55.9,0
"2018-06-04 04:07:07+00",31.0,36.0,,55.7,1730,712,-263,1009.18,55.9,0
"2018-06-04 04:12:07+00",31.2,34.2,,55.8,2439,750,-628,1009.14,56,0
"2018-06-04 04:17:07+00",30.8,33.8,,55.8,1782,748,-317,1009.06,55.9,0
"2018-06-04 04:22:07+00",31.6,34.6,,55.6,1990,778,-409,1008.95,55.9,0
"2018-06-04 04:27:07+00",30.7,34.7,,55.8,2036,629,-413,1008.79,56,0
"2018-06-04 04:32:07+00",29.1,32.1,,56,2038,680,-459,1008.64,56.2,0
"2018-06-04 04:37:07+00",31.7,34.7,,55.7,2519,741,-669,1008.6,56.1,0
"2018-06-04 04:42:07+00",27.8,30.8,,56.1,1740,568,-255,1008.51,56.3,0
"2018-06-04 04:47:07+00",28.3,31.3,,56.1,1834,573,-318,1008.42,56.2,0
"2018-06-04 04:52:07+00",29.2,32.2,,56,2325,595,-599,1008.22,56.2,0
"2018-06-04 04:57:07+00",30.1,33.1,,56.1,2085,649,-451,1008.1,56.3,0
"2018-06-04 05:02:07+00",30.0,33.0,,56,1927,641,-332,1007.99,56.2,0
"2018-06-04 05:07:07+00",32.3,35.3,,56,2112,712,-403,1007.91,56.1,0
"2018-06-04 05:12:07+00",30.1,33.1,,55.9,1473,328,218,1008.1,56.1,0
"2018-06-04 05:17:07+00",34.5,37.5,,55.8,1665,811,-118,1008.01,56,0
"2018-06-04 05:22:07+00",29.7,32.7,,56,1182,660,61,1007.95,56,0
"2018-06-04 05:27:07+00",32.3,34.3,,55.8,3249,635,-975,1007.85,55.8,0
"2018-06-04 05:32:07+00",32.7,35.7,,55.7,1913,545,-106,1007.73,55.9,0
"2018-06-04 05:37:07+00",31.0,33.0,,55.8,1815,631,-236,1007.7,56,0
"2018-06-04 05:42:07+00",30.0,33.0,,55.9,1349,376,240,1007.66,56,0
"2018-06-04 05:47:07+00",32.9,35.9,,55.8,2194,367,-102,1007.44,56,0
"2018-06-04 05:52:07+00",31.1,34.1,,55.9,3082,624,-930,1007.51,56,0
"2018-06-04 05:57:07+00",29.5,33.5,,56,1525,712,-177,1007.56,56.2,0
"2018-06-04 06:02:07+00",30.0,31.0,,55.8,1727,760,-316,1007.53,56,0
"2018-06-04 06:07:07+00",27.4,30.4,,56,1521,683,-236,1007.42,56.2,0
"2018-06-04 06:12:07+00",26.9,29.9,,56.2,1784,626,-348,1007.35,56.3,0
"2018-06-04 06:17:07+00",30.3,33.3,,55.9,1251,603,119,1007.11,56.1,0
"2018-06-04 06:22:07+00",28.9,30.9,,56,1440,534,-10,1007.12,56.1,0
"2018-06-04 06:27:07+00",27.7,28.7,,56.2,1724,620,-297,1007.09,56.2,0
"2018-06-04 06:32:07+00",29.2,31.2,,56,1991,622,-389,1007.08,56.1,0
"2018-06-04 06:37:07+00",26.5,29.5,,56,1437,592,-160,1007.13,56,0
"2018-06-04 06:42:07+00",29.5,31.5,,56,992,812,-5,1007.18,56,0
"2018-06-04 06:47:07+00",28.5,30.5,,56.1,821,810,64,1007.13,56,0
"2018-06-04 06:52:07+00",24.1,29.1,,56.4,774,662,54,1007.07,56.1,0
"2018-06-04 06:57:07+00",25.6,28.6,,56.2,549,958,-76,1007.17,56.1,0
"2018-06-04 07:02:07+00",28.2,30.2,,56.3,748,856,17,1006.96,56.2,0
"2018-06-04 07:07:07+00",28.6,31.6,,56.3,772,812,83,1006.75,56.2,0
"2018-06-04 07:12:07+00",26.9,29.9,,56.5,1391,655,-174,1006.57,56.3,0
"2018-06-04 07:17:07+00",26.9,29.9,,56.4,1481,665,-238,1006.61,56.2,0
"2018-06-04 07:22:07+00",30.1,33.1,,56.2,1797,805,-393,1006.34,56.2,0
"2018-06-04 07:27:07+00",29.5,31.5,,56.3,1762,684,-323,1006.2,56.2,0
"2018-06-04 07:32:07+00",27.1,33.1,,56.4,1491,634,-211,1006.27,56.3,0
"2018-06-04 07:37:07+00",27.0,29.0,,56.5,1033,682,29,1006.44,56.3,0
"2018-06-04 07:42:07+00",28.8,31.8,,56.5,396,1111,14,1006.64,56.3,0
"2018-06-04 07:47:07+00",26.0,29.0,,56.6,849,727,-12,1006.69,56.3,0
"2018-06-04 07:52:07+00",27.9,30.9,,56.7,807,781,56,1006.43,56.4,0
"2018-06-04 07:57:07+00",26.0,31.0,,56.7,799,769,3,1006.49,56.4,0
"2018-06-04 08:02:07+00",28.2,32.2,,56.6,832,775,106,1006.31,56.3,0
"2018-06-04 08:07:07+00",25.1,29.1,,56.8,1238,-210,594,1006.34,56.4,0
"2018-06-04 08:12:07+00",26.2,30.2,,56.6,1567,-691,858,1006.36,56.2,0
"2018-06-04 08:17:07+00",26.5,28.5,,56.6,736,656,188,1006.31,56.2,0
"2018-06-04 08:22:07+00",24.8,26.8,,56.8,755,725,25,1006.25,56.4,0
"2018-06-04 08:27:07+00",23.3,27.3,,56.8,645,740,16,1006.44,56.5,0
"2018-06-04 08:32:07+00",22.9,26.9,,56.9,621,722,7,1006.3,56.4,0
"2018-06-04 08:37:07+00",22.1,26.1,,56.9,652,661,31,1006.29,56.6,0
"2018-06-04 08:42:07+00",24.3,27.3,,56.9,672,749,7,1006.29,56.5,0
"2018-06-04 08:47:07+00",22.9,26.9,,56.9,629,691,3,1006.35,56.5,0
"2018-06-04 08:52:07+00",19.9,23.9,,56.9,527,653,20,1006.43,56.5,0
"2018-06-04 08:57:07+00",21.5,25.5,,56.8,424,828,12,1006.62,56.4,0
"2018-06-04 09:02:07+00",21.2,25.2,,56.9,465,793,6,1006.71,56.4,0
"2018-06-04 09:07:07+00",17.6,21.6,,56.7,207,716,18,1006.78,56.3,0
"2018-06-04 09:12:07+00",20.5,24.5,,56.5,96,886,7,1007.05,56.2,0
"2018-06-04 09:17:07+00",17.0,21.0,,56.3,-100,747,27,1007.2,56,0
"2018-06-04 09:22:07+00",14.6,16.6,,55.9,-58,644,13,1007.12,55.9,0
"2018-06-04 09:27:07+00",15.1,18.1,,55.6,2385,618,-1173,1007.14,55.7,0
"2018-06-04 09:32:07+00",19.9,22.9,,55.3,-243,825,-3,1007.38,55.4,0
"2018-06-04 09:37:07+00",15.8,18.8,,55,-187,669,23,1007.3,55.1,0
"2018-06-04 09:42:07+00",16.0,19.0,,54.9,-161,676,42,1007.47,54.9,0
"2018-06-04 09:47:07+00",19.3,21.3,,54.8,-162,830,1,1007.48,54.8,0
"2018-06-04 09:52:07+00",17.1,20.1,,54.7,-181,725,27,1007.51,54.7,0
"2018-06-04 09:57:07+00",17.8,19.8,,54.5,-161,763,23,1007.4,54.6,0
"2018-06-04 10:02:07+00",18.9,20.9,,54.4,-205,797,23,1007.43,54.3,0
"2018-06-04 10:07:07+00",16.1,19.1,,54.3,-115,694,36,1007.5,54.3,0
"2018-06-04 10:12:07+00",17.9,20.9,,54.3,-75,771,29,1007.47,54.2,0
"2018-06-04 10:17:07+00",18.0,20.0,,54.2,-159,772,15,1007.52,54.1,0
"2018-06-04 10:22:07+00",19.2,21.2,,54,-178,822,21,1007.47,53.9,0
"2018-06-04 10:27:07+00",21.8,26.8,,53.9,-39,950,25,1007.3,53.7,0
"2018-06-04 10:32:07+00",17.5,19.5,,54,32,761,19,1007.28,53.6,0
"2018-06-04 10:37:07+00",18.4,20.4,,53.9,33,713,90,1007.34,53.6,0
"2018-06-04 10:42:07+00",21.4,24.4,,53.9,-551,1732,-402,1007.3,53.6,0
"2018-06-04 10:47:07+00",21.8,24.8,,54,-522,1884,-543,1007.41,53.5,0
"2018-06-04 10:52:07+00",21.8,25.8,,54,-539,1892,-510,1007.33,53.6,0
"2018-06-04 10:57:07+00",23.0,26.0,,54.1,1052,-488,806,1007.17,53.5,0.4
"2018-06-04 11:22:07+00",18.5,23.5,,54.8,1816,-2178,1628,1007.02,54.3,43.7
"2018-06-04 11:27:07+00",18.5,24.5,,55,166,771,25,1007.23,54.7,156.4
"2018-06-04 11:32:07+00",20.5,24.5,,55.4,173,836,12,1007.31,55.5,107.9
"2018-06-04 11:37:07+00",18.7,22.7,,55.4,104,811,7,1007.22,55.5,46.4
"2018-06-04 11:42:07+00",19.6,23.6,,55,-70,860,38,1007.37,55.2,36.7
"2018-06-04 11:47:07+00",18.2,21.2,,54.9,-26,806,15,1007.39,55.1,63.8
"2018-06-04 11:52:07+00",18.4,21.4,,54.8,-20,814,25,1007.22,55,75.7
"2018-06-04 11:57:07+00",17.5,21.5,,54.9,42,763,16,1007.27,55.1,124
"2018-06-04 12:02:07+00",17.8,20.8,,55,113,758,15,1007.18,55.3,101.9
"2018-06-04 12:07:07+00",17.3,21.3,,55.1,160,719,12,1007.18,55.4,115.4
"2018-06-04 12:12:07+00",15.8,19.8,,55.4,111,670,16,1007.18,55.6,159.4
"2018-06-04 12:17:07+00",20.0,22.0,,55.3,-23,881,16,1007.3,56,166.5
"2018-06-04 12:22:07+00",17.9,20.9,,55.2,4,785,23,1007.32,56,121.4
"2018-06-04 12:27:07+00",16.8,20.8,,55.4,-4,749,33,1007.27,56.2,143
"2018-06-04 12:32:07+00",16.7,18.7,,55.6,-54,755,34,1007.27,56.4,198.9
"2018-06-04 12:37:07+00",19.9,22.9,,55.6,30,868,17,1007.53,56.6,150.9
"2018-06-04 12:42:07+00",18.4,22.4,,55.8,-52,815,20,1007.52,56.7,157.6
"2018-06-04 12:47:07+00",20.6,23.6,,55.7,-66,914,24,1007.69,56.7,125.7
"2018-06-04 12:52:07+00",20.0,22.0,,55.8,39,876,29,1007.61,56.7,148.6
"2018-06-04 12:57:07+00",21.2,23.2,,55.9,-105,930,24,1007.56,56.9,159.4
"2018-06-04 13:02:07+00",19.4,20.4,,56.1,28,836,15,1007.65,57.1,174.8
"2018-06-04 13:07:07+00",16.6,18.6,,56.4,-43,723,26,1007.64,57.3,158.5
"2018-06-04 13:12:07+00",17.0,21.0,,56.5,-39,751,27,1007.73,57.5,155.4
"2018-06-04 13:17:07+00",16.0,20.0,,56.6,-3,700,18,1007.68,57.7,212.4
"2018-06-04 13:22:07+00",15.7,17.7,,57,-36,693,33,1007.68,58.1,241.9
"2018-06-04 13:27:07+00",17.0,24.0,,57.3,21,755,50,1007.68,58.6,174.9
"2018-06-04 13:32:07+00",18.2,21.2,,57.1,-26,797,11,1007.59,58.6,228.8
"2018-06-04 13:37:07+00",17.0,19.0,,56.7,-130,742,27,1007.59,58.4,148.5
"2018-06-04 13:42:07+00",16.9,18.9,,57.1,-96,748,28,1007.47,58.8,186.4
"2018-06-04 13:47:07+00",16.1,19.1,,57.2,89,694,7,1007.61,58.9,202
"2018-06-04 13:52:07+00",14.0,16.0,,57.6,218,545,13,1007.47,59.3,284.2
"2018-06-04 13:57:07+00",15.2,19.2,,57.7,246,583,3,1007.4,59.7,476.1
"2018-06-04 14:02:07+00",15.0,19.0,,58,49,651,31,1007.53,60.6,507.3
"2018-06-04 14:07:07+00",13.5,16.5,,57.8,77,582,12,1007.53,60.8,390.2
"2018-06-04 14:12:07+00",12.6,15.6,,57.8,-1,559,34,1007.58,60.5,195.6
"2018-06-04 14:17:07+00",13.3,16.3,,57.9,117,560,-11,1007.59,60.8,497.9
"2018-06-04 14:22:07+00",13.4,15.4,,58.5,235,518,-1,1007.54,61.4,371.4
"2018-06-04 14:27:07+00",13.3,15.3,,58.9,132,560,-6,1007.52,61.9,287.6
"2018-06-04 14:32:07+00",11.0,13.0,,59.1,127,427,23,1007.46,62,271.1
"2018-06-04 14:37:07+00",10.9,14.9,,59.5,10,475,40,1007.39,62.1,179
"2018-06-04 14:42:07+00",10.3,16.3,,59.5,-140,423,42,1007.25,62.4,496.3
"2018-06-04 14:47:07+00",10.4,15.4,,59.8,20,452,36,1007.25,62.5,186.3
"2018-06-04 14:52:07+00",11.7,13.7,,59.8,-108,500,24,1007.27,62.6,440.5
"2018-06-04 14:57:07+00",12.4,15.4,,60.3,6,533,5,1007.31,63.1,244.3
"2018-06-04 15:02:07+00",11.5,13.5,,60,33,492,1,1007.2,63.1,345.6
"2018-06-04 15:07:07+00",13.1,15.1,,60.5,-3,574,35,1007.23,63.7,358
"2018-06-04 15:12:07+00",15.0,17.0,,60.5,-120,649,18,1007.19,63.9,531.4
"2018-06-04 15:17:07+00",14.1,16.1,,60.2,-13,619,4,1007.28,64,246.5
"2018-06-04 15:22:07+00",13.8,15.8,,60.3,39,595,7,1007.11,63.9,622
"2018-06-04 15:27:07+00",14.0,17.0,,60.8,57,607,-1,1007.12,64.4,624.3
"2018-06-04 15:32:07+00",13.2,17.2,,61,109,553,14,1007.05,64.8,566.5
"2018-06-04 15:37:07+00",14.3,16.3,,61.2,-77,619,7,1007.04,65.3,275.3
"2018-06-04 15:42:07+00",9.8,11.8,,60.7,-65,421,2,1007.08,64.7,330.9
"2018-06-04 15:47:07+00",9.0,12.0,,61.2,-20,394,26,1006.94,64.8,379.1
"2018-06-04 15:52:07+00",10.0,12.0,,61.5,-136,397,0,1006.93,65,464.6
"2018-06-04 15:57:07+00",11.5,13.5,,62,38,485,6,1006.99,65.6,568.9
"2018-06-04 16:02:07+00",13.7,15.7,,62.3,-114,591,15,1007,65.7,337.7
"2018-06-04 16:07:07+00",10.0,12.0,,62.2,39,423,-5,1006.96,65.7,634.1
"2018-06-04 16:12:07+00",12.5,13.5,,62.3,-326,452,27,1006.84,65.2,184
"2018-06-04 16:17:07+00",15.5,17.5,,62.6,-179,660,17,1006.83,64.9,530.6
"2018-06-04 16:22:07+00",11.9,14.9,,63.4,-67,514,38,1006.64,65.7,636.4
"2018-06-04 16:27:07+00",14.2,16.2,,63.4,-152,612,32,1006.75,66.3,139.5
"2018-06-04 16:32:07+00",12.2,15.2,,63.2,-203,483,42,1006.72,65.8,215.1
"2018-06-04 16:37:07+00",14.2,16.2,,63.4,-113,608,4,1006.58,65.8,236.3
"2018-06-04 16:42:07+00",11.1,13.1,,63.8,-167,451,12,1006.61,66.3,236.9
"2018-06-04 16:47:07+00",13.1,14.1,,63.5,-262,511,22,1006.55,65.9,237.6
"2018-06-04 16:52:07+00",10.3,12.3,,63.7,-73,439,6,1006.48,66.3,621.9
"2018-06-04 16:57:07+00",11.1,13.1,,63.7,-310,379,20,1006.4,66.3,528.9
"2018-06-04 17:02:07+00",8.5,10.5,,63.7,-217,292,-5,1006.34,66,368.7
"2018-06-04 17:07:07+00",9.7,10.7,,64.1,-183,373,0,1006.27,66.3,610.6
"2018-06-04 17:12:07+00",9.3,10.3,,64.6,-171,376,16,1006.28,66.5,168
"2018-06-04 17:17:07+00",10.2,11.2,,64.7,-273,366,24,1006.21,66.6,240.5
"2018-06-04 17:22:07+00",7.7,8.7,,65,-27,327,-9,1006.23,67,655.3
"2018-06-04 17:27:07+00",8.5,9.5,,65.3,-267,261,25,1006.2,67.5,347
"2018-06-04 17:32:07+00",9.8,10.8,,65.3,-224,367,24,1006.09,67.6,397.3
"2018-06-04 17:37:07+00",9.2,11.2,,65.4,-18,392,-1,1006.14,67.9,194.7
"2018-06-04 17:42:07+00",10.0,11.0,,65.9,-217,380,3,1006.17,68.1,356.6
"2018-06-04 17:47:07+00",9.9,11.9,,65.9,-261,336,6,1006.17,68,601.9
"2018-06-04 17:52:07+00",11.8,12.8,,66.1,-393,343,31,1006.08,68.1,616.5
"2018-06-04 17:57:07+00",10.3,11.3,,66,-343,302,36,1006.14,68,544.1
"2018-06-04 18:02:07+00",8.8,9.8,,66.1,-268,279,25,1006.14,68,556.3
"2018-06-04 18:07:07+00",10.1,11.1,,66.2,-324,303,21,1006.09,68.2,574.8
"2018-06-04 18:12:07+00",7.8,9.8,,66.3,-260,219,32,1006.21,68.5,564.6
"2018-06-04 18:17:07+00",6.5,7.5,,66.4,-238,156,12,1006.12,68.5,159.8
"2018-06-04 18:22:07+00",8.8,12.8,,66.6,-314,250,25,1006.23,68.7,567.1
"2018-06-04 18:27:07+00",10.2,12.2,,67.1,-327,318,37,1006.17,69,544.6
"2018-06-04 18:32:07+00",6.4,8.4,,67.2,-126,239,15,1006.14,69.3,526.4
"2018-06-04 18:37:07+00",3.5,4.5,,68,-28,34,78,1006.11,69.7,526.7
"2018-06-04 18:42:07+00",7.1,9.1,,64.8,305,-32,17,1006.01,68.1,518.5
"2018-06-04 18:47:07+00",11.8,12.8,,62.7,499,-177,10,1005.96,67.2,517.5
"2018-06-04 18:52:07+00",12.7,13.7,,61.4,508,-236,-1,1006.02,66.2,492.5
"2018-06-04 18:57:07+00",12.8,15.8,,61.2,547,-153,1,1005.92,65.3,551.3
"2018-06-04 19:02:07+00",12.5,13.5,,60.9,541,-134,17,1005.94,64.6,99.5
"2018-06-04 19:07:07+00",12.6,13.6,,60.7,523,-167,-1,1005.93,63.8,160.8
"2018-06-04 19:12:07+00",11.2,12.2,,60.6,438,-243,23,1005.89,63.5,183.3
"2018-06-04 19:17:07+00",11.0,12.0,,60.4,456,-186,23,1005.94,63.5,553.7
"2018-06-04 19:22:07+00",11.9,12.9,,60.4,500,-166,19,1005.85,63.9,495.7
"2018-06-04 19:27:07+00",11.0,12.0,,60.4,403,-266,2,1005.9,64.5,505.9
"2018-06-04 19:32:07+00",10.6,12.6,,60.5,418,-200,-9,1005.93,64.5,219.1
"2018-06-04 19:37:07+00",10.5,12.5,,60.3,454,-78,6,1005.91,64,89.4
"2018-06-04 19:42:07+00",10.3,11.3,,60.2,427,-158,25,1005.85,63.4,120.5
"2018-06-04 19:47:07+00",10.3,12.3,,60,408,-193,40,1005.92,62.8,99.6
"2018-06-04 19:52:07+00",11.0,12.0,,59.9,458,-177,-11,1005.92,62.6,59.6
"2018-06-04 19:57:07+00",9.5,10.5,,59.9,378,-192,14,1006,62.2,69.7
"2018-06-04 20:02:07+00",11.7,12.7,,59.8,508,-104,-10,1005.91,61.9,148.7
"2018-06-04 20:07:07+00",10.3,12.3,,60.1,436,-129,32,1005.74,62.2,416.5
"2018-06-04 20:12:07+00",11.6,12.6,,60.3,490,-150,5,1005.66,63,190.2
"2018-06-04 20:17:07+00",8.6,9.6,,61.1,321,-207,20,1005.68,64.1,415.1
"2018-06-04 20:22:07+00",11.1,12.1,,61.1,476,-127,27,1005.64,64.4,100.8
"2018-06-04 20:27:07+00",8.6,9.6,,61.2,291,-235,-15,1005.81,64,200.1
"2018-06-04 20:32:07+00",10.6,11.6,,60.7,400,-241,-33,1005.69,63.4,137.4
"2018-06-04 20:37:07+00",9.2,10.2,,60.3,294,-265,8,1005.64,62.9,67.9
"2018-06-04 20:42:07+00",10.0,11.0,,60.6,286,-325,1,1005.6,62.7,89.5
"2018-06-04 20:47:07+00",12.0,13.0,,60.1,285,-440,-6,1005.84,61.9,82
"2018-06-04 20:52:07+00",9.2,11.2,,59.9,80,-382,10,1005.9,61.5,98.3
"2018-06-04 20:57:07+00",14.2,17.2,,59.9,164,-586,-19,1005.69,61.6,95.6
"2018-06-04 21:02:07+00",12.1,14.1,,59.4,383,-354,-2,1005.85,61.2,84.2
"2018-06-04 21:07:07+00",12.2,15.2,,59.3,238,-464,7,1005.84,61.3,313.7
"2018-06-04 21:12:07+00",12.7,14.7,,59.6,216,-499,14,1005.77,61.6,287.5
"2018-06-04 21:17:07+00",10.4,13.4,,59.7,79,-439,-3,1005.81,61.6,67.6
"2018-06-04 21:22:07+00",11.2,13.2,,59.4,165,-451,0,1005.79,61.4,282.2
"2018-06-04 21:27:07+00",13.2,15.2,,59.2,144,-551,-31,1005.68,61,204.5
"2018-06-04 21:32:07+00",13.3,15.3,,59.2,287,-497,-26,1005.76,61,244.5
"2018-06-04 21:37:07+00",11.9,14.9,,59.3,233,-459,2,1005.73,61,241.7
"2018-06-04 21:42:07+00",12.1,15.1,,59.1,181,-476,-15,1005.74,60.8,38.8
"2018-06-04 21:47:07+00",13.0,14.0,,59,204,-521,-24,1005.69,60.5,246.8
"2018-06-04 21:52:07+00",13.0,14.0,,59.3,256,-499,-7,1005.59,60.8,148.9
"2018-06-04 21:57:07+00",12.7,15.7,,59,272,-472,9,1005.68,60.3,69.8
"2018-06-04 22:02:07+00",11.1,12.1,,59,196,-433,17,1005.81,60.1,50.8
"2018-06-04 22:07:07+00",12.6,13.6,,58.8,314,-448,-6,1005.8,59.9,132.6
"2018-06-04 22:12:07+00",13.2,15.2,,59,326,-465,-12,1005.72,60.3,54.6
"2018-06-04 22:17:07+00",11.3,12.3,,59.1,312,-368,23,1005.71,60.3,165.7
"2018-06-04 22:22:07+00",9.6,11.6,,59.1,181,-364,-15,1005.74,60.6,175.3
"2018-06-04 22:27:07+00",11.1,12.1,,59.1,340,-347,-10,1005.78,60.5,108.6
"2018-06-04 22:32:07+00",11.7,12.7,,59,373,-340,0,1005.83,60.4,110.6
"2018-06-04 22:37:07+00",11.6,12.6,,59.1,359,-349,3,1005.96,60.3,26
"2018-06-04 22:42:07+00",11.6,12.6,,59,230,-450,-8,1005.99,60.1,11
"2018-06-04 22:47:07+00",12.1,13.1,,58.9,262,-451,-16,1006.01,59.8,17.7
"2018-06-04 22:52:07+00",11.6,12.6,,58.8,269,-426,-20,1006.11,59.7,24.4
"2018-06-04 22:57:07+00",10.8,11.8,,59,141,-436,-13,1006.09,59.7,86.2
"2018-06-04 23:02:07+00",12.2,14.2,,59.3,89,-509,-19,1006,60,102.1
"2018-06-04 23:07:07+00",9.4,11.4,,59.5,103,-381,6,1005.94,60.2,72
"2018-06-04 23:12:07+00",11.7,12.7,,59.4,191,-462,-12,1005.92,60.2,58.4
"2018-06-04 23:17:07+00",10.6,11.6,,59.4,226,-393,-12,1005.97,60,47.6
"2018-06-04 23:22:07+00",10.3,11.3,,59.2,149,-411,-22,1006.02,59.9,39.6
"2018-06-04 23:27:07+00",11.2,12.2,,59.3,160,-451,-4,1006.03,59.8,31.5
"2018-06-04 23:32:07+00",10.1,12.1,,59.4,91,-420,-17,1006.06,59.8,24
"2018-06-04 23:37:07+00",8.6,11.6,,59.5,55,-367,-19,1006.18,59.8,14.4
"2018-06-04 23:42:07+00",10.1,12.1,,59.4,96,-417,-19,1006.13,59.7,8.2
"2018-06-04 23:47:07+00",8.3,10.3,,59.5,85,-336,-8,1006.09,59.7,2.6
"2018-06-04 23:52:07+00",8.7,10.7,,59.5,64,-349,-9,1006.15,59.7,0.1
"2018-06-04 23:57:07+00",7.0,9.0,,59.6,35,-283,6,1006.25,59.7,0
